Regional Weather Roundup
Issued by NWS

Home | Current Version | Previous Version | Graphics & Text | Print | Product List | Glossary Off
Versions: 1 2 3 4 5 6 7 8 9 10 11 12 13 14 15 16 17 18 19 20 21 22 23 24 25 26 27 28 29 30 31 32 33 34 35 36 37 38 39 40 41 42 43 44 45 46 47 48 49 50

000
ASUS43 KMKX 230200
RWRWI

WISCONSIN REGIONAL WEATHER ROUNDUP
NATIONAL WEATHER SERVICE MILWAUKEE/SULLIVAN WI
900 PM CDT FRI AUG 22 2014

NOTE: "FAIR" INDICATES FEW OR NO CLOUDS BELOW 12,000 FEET WITH NO
SIGNIFICANT WEATHER AND/OR OBSTRUCTIONS TO VISIBILITY.

WIZ001-002-006>008-014>016-023>028-230300-
NORTHWEST WISCONSIN

CITY           SKY/WX    TMP DP  RH WIND       PRES   REMARKS
SUPERIOR ARPT  CLOUDY    61  60  96 NE5       30.04R
ASHLAND        CLOUDY    64  61  90 NE3       30.04S
HAYWARD        CLOUDY    67  65  93 NE7       30.04R
SIREN          CLOUDY    69  66  89 N6        30.03R
RICE LAKE      CLOUDY    71  68  90 N5        30.03R
LADYSMITH      CLOUDY    72  70  92 CALM      30.03R
EAU CLAIRE     NOT AVBL
MENOMONIE      PTCLDY    73  68  86 N6        30.00S
NEW RICHMOND   CLOUDY    72  69  90 N3        30.02R
OSCEOLA        CLOUDY    73  72  97 CALM      30.03R
$$

WIZ003>005-009-010-017-018-230300-
NORTH CENTRAL WISCONSIN

CITY           SKY/WX    TMP DP  RH WIND       PRES   REMARKS
WOODRUFF       CLOUDY    72  69  89 NW3       30.03R
RHINELANDER    PTCLDY    69  69 100 CALM      30.03R
EAGLE RIVER    CLOUDY    70  69  99 CALM      30.03R FOG
LAND O LAKES   FOG       69  69 100 CALM      30.04R VSB 1/2
PHILLIPS       CLOUDY    69  68  97 N3        30.03R FOG
TOMAHAWK       CLOUDY    69  68  95 CALM      30.02R FOG
MEDFORD        MOCLDY    71  70  97 NE3       30.01R FOG
MERRILL        MOCLDY    70  70 100 CALM      30.00S FOG
$$

WIZ029-030-035-036-043>047-230300-
CENTRAL WISCONSIN

CITY           SKY/WX    TMP DP  RH WIND       PRES   REMARKS
WAUSAU         MOCLDY    74  71  91 NE3       29.98R
MOSINEE        NOT AVBL
MARSHFIELD     CLEAR     73  69  87 N6        29.99R
STEVENS POINT  PTCLDY    75  69  81 NE6       29.98R
WAUPACA        MOCLDY    76  75  94 E7        29.98R
WAUTOMA        NOT AVBL
WISC RAPIDS    MOCLDY    76  74  93 CALM      29.98R
CAMP DOUGLAS   FOG       73  73 100 CALM      29.96R VSB 1/2
$$

WIZ011>013-019>022-031-037>040-048>050-230300-
NORTHEAST WISCONSIN

CITY           SKY/WX    TMP DP  RH WIND       PRES   REMARKS
ANTIGO         CLOUDY    70  70  99 NE3       30.03R FOG
STURGEON BAY   CLOUDY    70  66  88 E3        30.01R
GREEN BAY      MOCLDY    72  70  93 E7        29.99R
MANITOWOC      FOG       70  68  94 CALM      30.00R VSB 1/2
APPLETON       MOCLDY    73  68  83 SE8       29.99R
CLINTONVILLE   CLOUDY    75  72  88 CALM      29.98R
OSHKOSH        PTCLDY    75  71  87 SE8       29.97R
$$

WIZ032>034-041-042-053>061-230300-
SOUTHWEST WISCONSIN

CITY           SKY/WX    TMP DP  RH WIND       PRES   REMARKS
LA CROSSE      PTCLDY    79  73  82 NW5       29.96R HX  82
SPARTA         CLEAR     77  73  87 CALM      29.97R
VIROQUA        FAIR      75  75 100 CALM      29.98R
BOSCOBEL       MOCLDY    80  76  87 CALM      29.95R HX  86
PRAIRIE DU CHI PTCLDY    82  74  77 CALM      29.93R HX  88
PLATTEVILLE    FAIR      80  77  91 CALM      29.97R HX  85
$$

WIZ056-057-062-063-064-067-068-230300-
SOUTH CENTRAL WISCONSIN

CITY           SKY/WX    TMP DP  RH WIND       PRES   REMARKS
BARABOO/DELLS  PTCLDY    78  73  83 CALM      29.95R HX  81
LONE ROCK      NOT AVBL
WATERTOWN      CLEAR     75  73  92 E6        29.97R
MADISON        PTCLDY    78  73  84 CALM      29.96R HX  81
MIDDLETON      FAIR      78  77  98 CALM      29.96R
MONROE         PTCLDY    77  73  88 SW7       29.97R
JANESVILLE     CLEAR     81  75  83 SW3       29.95R HX  86
$$

WIZ051-052-058>065-066-070>072-230300-
SOUTHEAST WISCONSIN

CITY           SKY/WX    TMP DP  RH WIND       PRES   REMARKS
MILWAUKEE      FOG       70  69  97 NE3       29.98R VSB 1/2
WAUKESHA       NOT AVBL
MILWAUKEE/TIMM CLOUDY    70  66  88 CALM      29.99R FOG
RACINE         FOG       71  70  96 CALM      30.00R VSB 1/2
BURLINGTON     CLOUDY    72  71  95 E7        29.98R FOG
KENOSHA        CLOUDY    74  72  93 E6        29.99R
FOND DU LAC    CLEAR     75  69  81 SE9       29.98R
SHEBOYGAN      FOG       68  67  96 E5        30.00R VSB 1/4
WEST BEND      CLOUDY    70  66  88 E5        30.00R FOG
JUNEAU         CLEAR     75  46  35 SE7       29.98R
$$

LSZ147-162-230300-
LAKE SUPERIOR

STATION/POSITION TIME  TEMP    WIND        PRES    WAVE
                       AIR SEA DIR/SP/G            HT/PER
                 (UTC) (F)     (DEG/KT/KT) (MB)    (FT/S)
W MID LAKE BUOY  0050   58 59   20/  8/ 10 1016.5R   2/ 4
DEVILS ISLAND    0100   60      30/  8/  9 1017.2R
PORT WING        0140   62     350/  5/  6 1017.3S
SAXON HARBOR     0100   62        CALM     1016.9S
$$

LMZ867-665-643>646-230300-
LAKE MICHIGAN

STATION/POSITION TIME  TEMP    WIND        PRES    WAVE
                       AIR SEA DIR/SP/G            HT/PER
                 (UTC) (F)     (DEG/KT/KT) (MB)    (FT/S)
N MID LAKE BUOY  0050   68 66   80/  6/  8 1015.2S   0
NORTHPORT PIER   0100   67     130/  2/  3 1015.9S
SISTER BAY       0026   69     120/  9/ 13   N/A
ALGOMA LAKESHORE 0053           80/  6/  8   N/A
KEWAUNEE LAKESHO 0100   67      40/  2/  4 1014.7R
SHEBOYGAN LAKESH 0100   67 67  100/  2/  2 1015.5R
ATWATER BUOY     0100   69      70/  6/  8 1015.9R
MILWAUKEE LAKESH 0100   69      70/  5/  6   N/A
S MID LAKE BUOY  0050   71 71   70/  2/  2 1014.8R   0
KENOSHA   LAKESH 0100   73      60/  5/  6 1013.9S
$$

TC  - TEMPERATURE IN CELSIUS
VSB - VISIBILITY IN STATUTE MILES
WCI - WIND CHILL INDEX
HX  - HEAT INDEX



USA.gov is the U.S. government's official web portal to all federal, state and local government web resources and services.